This demonstration page uses our WeatherBlox Daily Observations layout. Learn more.

Hourly Observations for January 14, 2015

Temp ( °F °C ) Dew Point ( °F °C ) Humidity (%) Winds ( mph kmh ) Pressure ( in mb ) Visibility ( mi km ) Precip ( " mm )
12:15 am 00:15 Cloudy 23 -5 10 -12.4 57 57 SW 9 15 30.48 1032 10 16.0934 0 0
12:35 am 00:35 Cloudy 23 -5 10 -12.2 57 57 SW 12 19 30.48 1032 10 16.0934 0 0
12:55 am 00:55 Cloudy 23 -5 10 -12.1 58 58 SW 9 15 30.45 1031 10 16.0934 0 0
1:15 am 01:15 Cloudy 23 -5.1 10 -12.1 58 58 SW 9 15 30.45 1031 10 16.0934 0 0
1:35 am 01:35 Partly Cloudy 22 -5.6 10 -12.2 60 60 WSW 6 9 30.45 1031 10 16.0934 0 0
1:55 am 01:55 Clear 21 -6 10 -12.3 61 61 WSW 7 11 30.45 1031 10 16.0934 0 0
2:15 am 02:15 Clear 20 -6.4 10 -12.4 63 63 WSW 6 9 30.45 1031 10 16.0934 0 0
2:35 am 02:35 Clear 20 -6.8 10 -12.2 66 66 WSW 6 9 30.48 1032 10 16.0934 0 0
2:55 am 02:55 Clear 19 -7.4 10 -12.4 68 68 W 6 9 30.48 1032 10 16.0934 0 0
3:15 am 03:15 Clear 18 -7.6 10 -12.2 70 70 W 6 9 30.48 1032 10 16.0934 0 0
3:35 am 03:35 Clear 18 -7.6 11 -11.8 72 72 W 7 11 30.48 1032 10 16.0934 0 0
3:55 am 03:55 Clear 17 -8.1 10 -12 74 74 W 7 11 30.48 1032 10 16.0934 0 0
4:15 am 04:15 Clear 17 -8.1 11 -11.6 76 76 WNW 6 9 30.48 1032 10 16.0934 0 0
4:35 am 04:35 Clear 16 -8.8 11 -11.8 79 79 WNW 6 9 30.48 1032 10 16.0934 0 0
4:55 am 04:55 Clear 15 -9.7 10 -12.1 83 83 WNW 7 11 30.45 1031 10 16.0934 0 0
5:15 am 05:15 Clear 15 -9.3 12 -11.1 87 87 WNW 7 11 30.45 1031 10 16.0934 0 0
5:35 am 05:35 Clear 16 -8.8 13 -10.3 89 89 WNW 6 9 30.45 1031 10 16.0934 0 0
5:55 am 05:55 Clear 16 -9.1 13 -10.8 88 88 WNW 6 9 30.45 1031 10 16.0934 0 0
6:15 am 06:15 Clear 15 -9.2 13 -10.7 89 89 WNW 6 9 30.48 1032 10 16.0934 0 0
6:35 am 06:35 Clear 16 -9 13 -10.5 89 89 WNW 6 9 30.48 1032 10 16.0934 0 0
6:55 am 06:55 Clear 15 -9.3 12 -11 88 88 W 6 9 30.48 1032 10 16.0934 0 0
7:15 am 07:15 Clear 16 -9 13 -10.6 88 88 W 7 11 30.48 1032 10 16.0934 0 0
7:35 am 07:35 Clear 17 -8.3 14 -10.1 87 87 W 7 11 30.45 1031 10 16.0934 0 0
7:55 am 07:55 Clear 17 -8.1 14 -10.1 86 86 WNW 7 11 30.45 1031 10 16.0934 0 0
8:15 am 08:15 Sunny 17 -8.1 13 -10.3 84 84 W 8 13 30.45 1031 10 16.0934 0 0
8:35 am 08:35 Sunny 18 -8 13 -10.4 83 83 WNW 6 9 30.45 1031 10 16.0934 0 0
8:55 am 08:55 Sunny 18 -7.7 14 -10.1 83 83 WNW 7 11 30.45 1031 10 16.0934 0 0
9:15 am 09:15 Sunny 20 -6.6 16 -9 83 83 WNW 6 9 30.42 1030 10 16.0934 0 0
9:35 am 09:35 Sunny 23 -5 18 -7.9 80 80 WNW 5 7 30.42 1030 10 16.0934 0 0
9:55 am 09:55 Sunny 25 -3.7 19 -7.2 77 77 WNW 6 9 30.39 1029 10 16.0934 0 0
10:15 am 10:15 Sunny 28 -2.5 20 -6.8 73 73 WNW 7 11 30.42 1030 10 16.0934 0 0
10:35 am 10:35 Sunny 29 -1.5 20 -6.4 70 70 W 7 11 30.42 1030 10 16.0934 0 0
10:55 am 10:55 Sunny 32 -0.2 20 -6.5 63 63 WNW 6 9 30.39 1029 10 16.0934 0 0
11:15 am 11:15 Sunny 32 0.1 20 -6.5 62 62 W 5 7 30.36 1028 10 16.0934 0 0
11:35 am 11:35 Sunny 34 1 20 -6.4 58 58 W 5 7 30.36 1028 10 16.0934 0 0
11:55 am 11:55 Sunny 35 1.6 20 -6.8 54 54 WNW 5 7 30.33 1027 10 16.0934 0 0
12:15 pm 12:15 Sunny 36 2.2 20 -6.9 51 51 NW 7 11 30.3 1026 10 16.0934 0 0
12:35 pm 12:35 Sunny 37 2.6 20 -6.9 50 50 WNW 7 11 30.3 1026 10 16.0934 0 0
12:55 pm 12:55 Sunny 38 3.3 20 -6.9 48 48 NW 7 11 30.27 1025 10 16.0934 0 0
1:15 pm 13:15 Sunny 38 3.6 20 -6.9 47 47 WNW 6 9 30.27 1025 10 16.0934 0 0
1:35 pm 13:35 Sunny 39 3.7 19 -7.1 46 46 NW 7 11 30.27 1025 10 16.0934 0 0
1:55 pm 13:55 Sunny 39 4.1 19 -7.3 44 44 W 6 9 30.24 1024 10 16.0934 0 0
2:15 pm 14:15 Sunny 40 4.4 19 -7.4 42 42 WNW 6 9 30.24 1024 10 16.0934 0 0
2:35 pm 14:35 Sunny 40 4.6 19 -7.4 42 42 NW 6 9 30.21 1023 10 16.0934 0 0
2:55 pm 14:55 Sunny 40 4.6 19 -7.5 41 41 WNW 6 9 30.21 1023 10 16.0934 0 0
3:15 pm 15:15 Sunny 40 4.5 18 -7.8 41 41 W 9 15 30.21 1023 10 16.0934 0 0
3:35 pm 15:35 Sunny 41 5 19 -7.4 41 41 WNW 8 13 30.21 1023 10 16.0934 0 0
3:55 pm 15:55 Sunny 40 4.6 19 -7.3 42 42 WNW 7 11 30.21 1023 10 16.0934 0 0
4:15 pm 16:15 Sunny 40 4.5 20 -6.8 44 44 W 6 9 30.21 1023 10 16.0934 0 0
4:35 pm 16:35 Sunny 39 4.1 20 -6.6 46 46 WNW 5 7 30.18 1022 10 16.0934 0 0
4:55 pm 16:55 Sunny 38 3.6 20 -6.6 48 48 W 5 7 30.18 1022 10 16.0934 0 0
5:15 pm 17:15 Sunny 37 2.7 20 -6.6 51 51 W 6 9 30.21 1023 10 16.0934 0 0
5:35 pm 17:35 Clear 33 0.8 20 -6.5 59 59 W 7 11 30.27 1025 10 16.0934 0 0
5:55 pm 17:55 Clear 34 0.9 21 -5.9 61 61 SW 6 9 30.21 1023 10 16.0934 0 0
6:15 pm 18:15 Clear 32 -0.2 21 -6.2 64 64 WSW 6 9 30.27 1025 10 16.0934 0 0
6:35 pm 18:35 Clear 31 -0.4 21 -6.2 65 65 WSW 6 9 30.27 1025 10 16.0934 0 0
6:55 pm 18:55 Clear 30 -1.3 20 -6.5 68 68 SW 6 9 30.24 1024 10 16.0934 0 0
7:15 pm 19:15 Clear 29 -1.8 20 -6.4 71 71 SW 6 9 30.24 1024 10 16.0934 0 0
7:35 pm 19:35 Clear 30 -1.3 21 -6.2 70 70 SW 6 9 30.24 1024 10 16.0934 0 0
7:55 pm 19:55 Clear 29 -1.6 20 -6.5 70 70 SW 5 7 30.24 1024 10 16.0934 0 0
8:15 pm 20:15 Clear 28 -2.1 20 -6.5 72 72 SW 6 9 30.24 1024 10 16.0934 0 0
8:35 pm 20:35 Clear 28 -2.1 20 -6.4 73 73 WSW 6 9 30.24 1024 10 16.0934 0 0
8:55 pm 20:55 Clear 28 -2.3 20 -6.7 72 72 SW 6 9 30.24 1024 10 16.0934 0 0
9:15 pm 21:15 Clear 29 -1.9 21 -6.2 73 73 WSW 5 7 30.24 1024 10 16.0934 0 0
9:35 pm 21:35 Clear 27 -2.6 20 -6.8 73 73 WSW 3 6 30.27 1025 10 16.0934 0 0
9:55 pm 21:55 Clear 27 -2.6 20 -6.7 74 74 SW 7 11 30.27 1025 10 16.0934 0 0
10:15 pm 22:15 Clear 27 -2.6 20 -6.6 74 74 WSW 6 9 30.27 1025 10 16.0934 0 0
10:35 pm 22:35 Clear 27 -2.8 20 -6.7 75 75 W 6 9 30.27 1025 10 16.0934 0 0
10:55 pm 22:55 Clear 26 -3.2 19 -7.1 75 75 W 6 9 30.27 1025 10 16.0934 0 0
11:15 pm 23:15 Clear 26 -3.1 19 -7 75 75 W 6 9 30.27 1025 10 16.0934 0 0
11:35 pm 23:35 Clear 28 -2.2 20 -6.7 72 72 WSW 8 13 30.24 1024 10 16.0934 0 0
11:55 pm 23:55 Clear 28 -2.1 20 -6.9 70 70 W 9 15 30.24 1024 10 16.0934 0 0

Powered by AerisWeather